[[{"header":{"parameterUnit":"m.s-1","parameterCategory":1,"la1":30.2991,"la2":30.254,"lo1":-89.0895,"lo2":-89.0444,"dy":0.0017,"dx":0.0017,"nx":28,"ny":28,"refTime":"2023-08-13T09:00:00:Z","depth":0,"parameterNumber":2,"parameterNumberName":"U-component_of_WINDS"},"data":[0,0,0,0,0,0,0,0,0,0,0,0,0,0,0,0,0,0,0,0,0,0,0,0,0,0,0,0,0,0,0,0,0,0,0,0,0,0,0,0,0,0,0,0,0,0,0,0,0,0,0,0,0,0,0,0,0,0,1.8607,1.8607,0,1.8683,1.8684,1.8685,1.8675,1.8673,1.8672,1.8671,1.8747,1.875,1.8753,0,0,0,0,0,0,0,0,0,0,0,0,0,1.8446,1.8449,1.8606,1.8607,1.8608,1.8683,1.8684,1.8685,1.8675,1.8673,1.8672,1.867,1.8746,1.8749,1.8753,0,0,0,0,0,0,0,0,0,0,0,0,0,1.8519,1.845,1.8606,1.8612,1.8614,1.8683,1.8684,1.8686,1.8675,1.8673,1.8671,1.867,1.8744,1.8749,1.8754,1.8821,0,0,1.8768,1.877,0,0,0,0,0,0,0,0,1.8515,1.8525,1.861,1.8612,1.8614,1.8668,1.8655,1.8731,1.8676,1.8652,1.8671,1.8669,1.8722,1.8728,1.8747,1.8824,1.8828,1.8769,1.8772,1.8774,1.8775,0,0,0,0,0,0,0,1.851,1.8521,1.8637,1.8612,1.8614,1.861,1.8618,1.867,1.8696,1.8654,1.8653,1.8663,1.8722,1.8742,1.8748,1.8829,1.8769,1.8773,1.8776,1.8778,1.8963,1.8965,0,0,0,0,0,0,1.8504,1.8517,1.8634,1.8639,1.8559,1.8614,1.8623,1.8652,1.8696,1.8701,1.8664,1.8662,1.8735,1.8743,1.8751,1.8831,1.8774,1.8778,1.8781,1.8961,1.8963,1.8965,0,0,0,0,0,0,1.85,1.8514,1.8631,1.8578,1.8593,1.8619,1.8651,1.8655,1.8675,1.8704,1.8708,1.868,1.8734,1.8744,1.8803,1.8833,1.878,1.8785,1.8958,1.8962,1.8964,1.8992,0,0,0,0,0,0,1.8496,1.8513,1.854,1.8579,1.8596,1.8684,1.8653,1.8657,1.8683,1.8681,1.8719,1.8724,1.8733,1.8796,1.8808,1.8839,1.8788,1.8956,1.896,1.8963,1.8988,1.8995,1.9001,0,0,0,0,0,1.849,1.8545,1.8542,1.8556,1.863,1.8685,1.8695,1.8705,1.8686,1.8712,1.873,1.8723,1.8828,1.8802,1.8815,1.8848,1.8954,1.8959,1.8963,1.8985,1.8994,1.9001,0,0,0,0,0,0,1.8508,1.855,1.8547,1.8616,1.8647,1.8684,1.8717,1.8714,1.8751,1.8747,1.8757,1.8766,1.8825,1.8843,1.8813,1.8914,1.8888,1.8896,1.89,1.8909,1.8915,1.8909,1.8792,0,0,0,0,0,1.852,1.8563,1.8597,1.8654,1.867,1.8691,1.8716,1.8721,1.8753,1.8766,1.8789,1.8819,1.8859,1.8885,1.8924,1.8991,1.8998,1.902,1.9026,1.9032,1.9037,1.9072,1.9081,1.8981,1.8981,1.898,0,0,1.8545,1.8574,1.86,1.8658,1.8683,1.8726,1.8702,1.8749,1.8779,1.8773,1.8829,1.8847,1.8882,1.8945,1.8974,1.8961,1.9067,1.9037,1.9041,1.9045,1.9078,1.9087,1.9095,1.8984,1.8983,1.8983,0,0,1.8613,1.8639,1.8689,1.8714,1.8752,1.8766,1.8778,1.8814,1.8826,1.8883,1.8878,1.8915,1.8984,1.9008,1.9029,1.9104,1.9098,1.9116,1.915,1.9184,1.9192,1.9199,1.9223,1.9232,1.9122,1.9122,1.9123,0,1.8639,1.8704,1.8715,1.8761,1.8786,1.8783,1.8832,1.8855,1.8904,1.892,1.8906,1.8991,1.9015,1.9082,1.91,1.9118,1.913,1.9111,1.919,1.9197,1.9204,1.9227,1.9237,1.9124,1.9124,1.9124,1.9124,0,1.8733,1.8778,1.8813,1.886,1.8889,1.8937,1.8953,1.8981,1.8983,1.8997,1.9054,1.9082,1.9125,1.9142,1.9144,1.9209,1.92,1.9188,1.9161,1.9215,1.9237,1.9246,1.9127,1.9126,1.9126,1.9125,0,0,1.8814,1.8866,1.8878,1.8899,1.894,1.8974,1.902,1.9063,1.9085,1.9119,1.9156,1.9214,1.9203,1.9227,1.9232,1.9262,1.9316,1.9246,1.9247,1.9256,1.9386,1.9394,1.9404,1.9313,1.9314,1.9316,1.9383,0,1.8884,1.8967,1.8977,1.9051,1.9091,1.9087,1.9127,1.9156,1.917,1.9205,1.922,1.926,1.9243,1.9257,1.9287,1.9303,1.9342,1.9299,1.9346,1.9347,1.9336,1.9416,1.9425,1.9486,1.9392,1.9393,1.9394,0,1.8976,1.9012,1.9089,1.9123,1.914,1.9176,1.9215,1.9249,1.9281,1.9289,1.9315,1.9316,1.9362,1.9335,1.9397,1.9367,1.9387,1.9398,1.94,1.9404,1.9373,1.942,1.9507,1.9515,1.9408,1.9407,1.9406,0,1.9025,1.9092,1.9147,1.9165,1.9206,1.9231,1.9249,1.9279,1.9303,1.9337,1.9352,1.939,1.9411,1.944,1.945,1.943,1.9511,1.9485,1.9517,1.9516,1.9533,1.9532,1.9622,1.9549,1.9549,1.9548,1.9548,0,1.9101,1.9148,1.9169,1.9202,1.9254,1.9265,1.9315,1.9332,1.9358,1.9393,1.9392,1.9425,1.9438,1.9472,1.948,1.9529,1.9539,1.9545,1.9546,1.9544,1.9543,1.9556,1.9552,1.9551,1.955,1.955,1.9549,0,1.9163,1.918,1.9239,1.9273,1.9282,1.9319,1.9347,1.9378,1.9392,1.9436,1.9447,1.9468,1.9508,1.9521,1.957,1.9575,1.9631,1.963,1.9621,1.9621,1.9651,1.9647,1.9752,1.9765,1.9684,1.9685,1.9686,0,1.921,1.9246,1.9284,1.9307,1.9327,1.9365,1.939,1.9401,1.9426,1.9464,1.949,1.953,1.9562,1.9626,1.9645,1.9681,1.9679,1.9713,1.9685,1.9681,1.9677,1.9674,1.9677,1.9718,1.9719,1.972,1.972,0,1.929,1.9296,1.9332,1.9371,1.94,1.9431,1.9461,1.948,1.9495,1.9524,1.9565,1.959,1.9639,1.9678,1.9715,1.9732,1.9728,1.9729,1.9738,1.9736,1.9728,1.9731,1.9633,1.9727,1.9726,1.9726,1.9725,1.9725,1.9345,1.9375,1.9407,1.9446,1.947,1.9497,1.9528,1.9545,1.958,1.9621,1.9625,1.9669,1.9697,1.9747,1.9765,1.9798,1.9789,1.9802,1.9805,1.9808,1.9809,1.9724,1.9805,1.9805,1.9805,1.9805,1.9805,0,1.9423,1.9442,1.9479,1.952,1.9551,1.9546,1.9578,1.9603,1.9642,1.967,1.9701,1.9747,1.9785,1.9806,1.9843,1.9865,1.9864,1.9874,1.9872,1.9875,1.9817,1.9805,1.9874,1.9874,1.9874,1.9874,1.9874,1.9874,1.9467,1.9518,1.9528,1.959,1.9609,1.9652,1.9671,1.9695,1.9717,1.9769,1.98,1.9814,1.9838,1.9876,1.9909,1.9914,1.9927,1.9938,1.9942,1.9887,1.988,1.9873,1.9861,1.9941,1.9941,1.9997,1.9997,1.9998]},{"header":{"parameterUnit":"m.s-1","parameterCategory":1,"la1":30.2991,"la2":30.254,"lo1":-89.0895,"lo2":-89.0444,"dy":0.0017,"dx":0.0017,"nx":28,"ny":28,"refTime":"2023-08-13T09:00:00:Z","depth":0,"parameterNumber":3,"parameterNumberName":"V-component_of_WINDS"},"data":[0,0,0,0,0,0,0,0,0,0,0,0,0,0,0,0,0,0,0,0,0,0,0,0,0,0,0,0,0,0,0,0,0,0,0,0,0,0,0,0,0,0,0,0,0,0,0,0,0,0,0,0,0,0,0,0,0,0,5.86,5.8601,0,5.8639,5.864,5.864,5.8568,5.8566,5.8564,5.8561,5.8596,5.8599,5.8602,0,0,0,0,0,0,0,0,0,0,0,0,0,5.8457,5.846,5.86,5.8601,5.8601,5.8639,5.864,5.864,5.8569,5.8566,5.8563,5.856,5.8595,5.8599,5.8603,0,0,0,0,0,0,0,0,0,0,0,0,0,5.851,5.8461,5.86,5.857,5.8568,5.8639,5.864,5.8641,5.8569,5.8566,5.8562,5.8559,5.8594,5.8599,5.8603,5.8704,0,0,5.8618,5.862,0,0,0,0,0,0,0,0,5.8507,5.8515,5.8574,5.8572,5.857,5.8595,5.8602,5.8662,5.857,5.8569,5.8561,5.8557,5.8599,5.8603,5.8618,5.8706,5.8707,5.8618,5.8621,5.8623,5.8624,0,0,0,0,0,0,0,5.8503,5.8513,5.8615,5.8575,5.8572,5.8553,5.8556,5.8613,5.8603,5.8568,5.8563,5.8569,5.8597,5.8613,5.8618,5.8708,5.8618,5.8622,5.8625,5.8627,5.8878,5.8881,0,0,0,0,0,0,5.8504,5.851,5.8614,5.8617,5.8529,5.8558,5.8562,5.8591,5.8602,5.8601,5.8572,5.8566,5.8607,5.8613,5.8619,5.8736,5.8623,5.8627,5.863,5.8874,5.8879,5.8883,0,0,0,0,0,0,5.8501,5.8514,5.8613,5.8562,5.8573,5.8564,5.8597,5.8593,5.861,5.8605,5.8602,5.8592,5.8604,5.8612,5.8683,5.8736,5.863,5.8634,5.8869,5.8875,5.8881,5.8972,0,0,0,0,0,0,5.8497,5.8513,5.8553,5.8564,5.8576,5.8678,5.86,5.8597,5.8619,5.8611,5.8623,5.8621,5.8602,5.8677,5.8688,5.8741,5.8638,5.8865,5.8872,5.8879,5.8964,5.898,5.8994,0,0,0,0,0,5.8493,5.8577,5.8556,5.8568,5.8626,5.8682,5.8688,5.8667,5.8624,5.8662,5.8659,5.8621,5.8729,5.8685,5.8697,5.8752,5.8861,5.887,5.8878,5.8958,5.8977,5.8994,0,0,0,0,0,0,5.8571,5.8577,5.8554,5.8645,5.8663,5.8669,5.8718,5.8688,5.8718,5.8709,5.8679,5.8683,5.8759,5.8762,5.8713,5.8849,5.8787,5.8799,5.8844,5.8862,5.8877,5.8873,5.8641,0,0,0,0,0,5.8599,5.8646,5.8648,5.8727,5.8738,5.8727,5.875,5.8732,5.8749,5.8756,5.8758,5.8775,5.8812,5.8837,5.8872,5.8965,5.8965,5.9009,5.9023,5.9036,5.9045,5.9093,5.9111,5.8911,5.8911,5.8911,0,0,5.8657,5.8666,5.8697,5.8743,5.8756,5.8802,5.8734,5.8786,5.882,5.8763,5.883,5.8833,5.8849,5.8931,5.8967,5.8936,5.9101,5.9047,5.9056,5.9059,5.9103,5.9122,5.9139,5.8917,5.8916,5.8915,0,0,5.8786,5.8799,5.8865,5.8879,5.8899,5.8891,5.8907,5.8918,5.8917,5.8985,5.8943,5.8982,5.9048,5.9061,5.9076,5.921,5.9175,5.9222,5.9298,5.9345,5.9361,5.9374,5.942,5.9437,5.9232,5.9232,5.9232,0,5.8854,5.8925,5.8903,5.8958,5.8979,5.8932,5.8997,5.9012,5.9041,5.9055,5.9021,5.9102,5.911,5.9194,5.9226,5.9241,5.9256,5.9219,5.9361,5.9374,5.9387,5.943,5.9447,5.9237,5.9237,5.9236,5.9236,0,5.9007,5.9057,5.9108,5.914,5.9166,5.9226,5.9211,5.924,5.9219,5.9214,5.9282,5.929,5.9325,5.9343,5.9324,5.9424,5.9404,5.9366,5.9303,5.9412,5.9451,5.9468,5.9245,5.9243,5.9241,5.924,0,0,5.9186,5.9205,5.9223,5.9236,5.9255,5.9292,5.9349,5.9384,5.9409,5.9431,5.9477,5.9534,5.9498,5.9516,5.9497,5.9538,5.9641,5.9494,5.9494,5.9519,5.9749,5.9777,5.9796,5.9618,5.9621,5.9624,5.9747,0,5.9313,5.9413,5.9395,5.9492,5.9536,5.9492,5.9541,5.9557,5.9553,5.9588,5.9584,5.9624,5.9575,5.9585,5.9624,5.962,5.9686,5.9611,5.9658,5.966,5.9654,5.9818,5.9847,5.9963,5.9763,5.9766,5.9768,0,5.9474,5.9503,5.9605,5.9616,5.9633,5.9679,5.9708,5.9744,5.976,5.9754,5.9774,5.9747,5.9801,5.974,5.9814,5.9763,5.9781,5.9782,5.9786,5.9788,5.9719,5.9822,6.0,6.0016,5.9792,5.979,5.9788,0,5.9591,5.9656,5.9725,5.9738,5.9752,5.9785,5.9792,5.9805,5.9827,5.9853,5.9866,5.9898,5.9914,5.9939,5.992,5.9877,5.9996,5.9933,5.9991,5.9992,6.0017,6.0015,6.0198,6.0032,6.0032,6.0031,6.0031,0,5.9733,5.9797,5.9778,5.982,5.989,5.9867,5.9935,5.9937,5.9948,5.9989,5.9952,5.999,5.9964,6.0,5.9986,6.0048,6.0056,6.0051,6.0046,6.0054,6.0054,6.0064,6.0055,6.0036,6.0035,6.0034,6.0033,0,5.9876,5.9866,5.9938,5.9946,5.9949,6.0,6.0006,6.0044,6.0038,6.0089,6.01,6.009,6.013,6.0114,6.0156,6.0146,6.0225,6.0211,6.022,6.0216,6.0274,6.0268,6.0468,6.0492,6.0312,6.0314,6.0316,0,5.9966,6.0014,6.0028,6.0053,6.0063,6.0104,6.0127,6.0105,6.013,6.0152,6.0187,6.0224,6.0252,6.0317,6.0313,6.0344,6.0329,6.0397,6.0333,6.0338,6.0327,6.0324,6.0328,6.0409,6.0411,6.0412,6.0414,0,6.0127,6.012,6.0155,6.0188,6.0216,6.0241,6.0262,6.0284,6.0264,6.0293,6.0334,6.0356,6.04,6.0436,6.0464,6.0469,6.0437,6.0434,6.0449,6.0456,6.0459,6.0456,6.0253,6.0429,6.0428,6.0427,6.0426,6.0425,6.0245,6.0285,6.0301,6.034,6.0354,6.0375,6.0411,6.041,6.0444,6.0479,6.0464,6.0511,6.0524,6.0558,6.0568,6.0603,6.0576,6.0598,6.0603,6.0608,6.0615,6.0455,6.0608,6.0608,6.0607,6.0607,6.0606,0,6.0402,6.041,6.0447,6.0479,6.0509,6.0479,6.0501,6.0528,6.057,6.0586,6.0615,6.0661,6.0696,6.0695,6.0726,6.0755,6.0741,6.0764,6.076,6.0761,6.0638,6.0621,6.0774,6.0774,6.0774,6.0774,6.0774,6.0774,6.0488,6.0553,6.0548,6.0619,6.0626,6.0673,6.0688,6.0706,6.0718,6.0772,6.0801,6.0801,6.0809,6.0841,6.0871,6.087,6.0882,6.091,6.0903,6.0787,6.077,6.0754,6.0738,6.0913,6.0914,6.1023,6.1024,6.1025]}]]